This is the latest recevied weather packets stored in our database for station/object K4VEB. If no packets are shown the sender has not sent any weather packets the latest 10 day(s).
| Time | Temp. | Humidity | Pressure | Rain* | Wind** | Luminosity | Snow |
|---|---|---|---|---|---|---|---|
| 1777942278 | 22.78° C | 59% | 1015.1 hPa | 0 mm | - | 0 W/m² | - |
| 1777941975 | 23.33° C | 59% | 1014.9 hPa | 0 mm | - | 0 W/m² | - |
| 1777941672 | 23.33° C | 59% | 1015.1 hPa | 0 mm | - | 0 W/m² | - |
| 1777941369 | 23.33° C | 58% | 1014.9 hPa | 0 mm | - | 0 W/m² | - |
| 1777941066 | 23.33° C | 58% | 1015.1 hPa | 0 mm | - | 0 W/m² | - |
| 1777940762 | 23.89° C | 57% | 1015.1 hPa | 0 mm | - | 0 W/m² | - |
| 1777940461 | 23.89° C | 57% | 1015.1 hPa | 0 mm | - | 0 W/m² | - |
| 1777940157 | 23.89° C | 56% | 1015 hPa | 0 mm | - | 1 W/m² | - |
| 1777939855 | 23.89° C | 56% | 1015.2 hPa | 0 mm | - | 2 W/m² | - |
| 1777939552 | 24.44° C | 55% | 1014.7 hPa | 0 mm | - | 4 W/m² | - |
| 1777939250 | 24.44° C | 55% | 1014.6 hPa | 0 mm | - | 6 W/m² | - |
| 1777938946 | 24.44° C | 55% | 1014.6 hPa | 0 mm | - | 9 W/m² | - |
| 1777938643 | 24.44° C | 55% | 1014.5 hPa | 0 mm | - | 12 W/m² | - |
| 1777938340 | 24.44° C | 54% | 1014.4 hPa | 0 mm | - | 16 W/m² | - |
| 1777938037 | 25° C | 53% | 1014.4 hPa | 0 mm | - | 19 W/m² | - |
| 1777937732 | 25° C | 52% | 1014.4 hPa | 0 mm | - | 24 W/m² | - |
| 1777937429 | 25° C | 52% | 1014.3 hPa | 0 mm | - | 27 W/m² | - |
| 1777937126 | 25.56° C | 51% | 1014.2 hPa | 0 mm | - | 31 W/m² | - |
| 1777936824 | 25.56° C | 50% | 1014.4 hPa | 0 mm | - | 38 W/m² | - |
| 1777936520 | 25.56° C | 50% | 1014.1 hPa | 0 mm | - | 48 W/m² | - |
| 1777936216 | 25.56° C | 50% | 1014.1 hPa | 0 mm | - | 59 W/m² | - |
| 1777935913 | 26.11° C | 50% | 1014.1 hPa | 0 mm | - | 73 W/m² | - |
| 1777935612 | 25.56° C | 49% | 1014.1 hPa | 0 mm | - | 86 W/m² | - |
| 1777935308 | 26.11° C | 49% | 1014.2 hPa | 0 mm | - | 65 W/m² | - |
| 1777935005 | 26.67° C | 48% | 1014.2 hPa | 0 mm | - | 69 W/m² | - |
* Rain latest hour (hover to see other rain measurements)
** Current wind speed in m/s (hover to see current wind gust speed)